Location: Maynard F. Jordan Observatory
(44.9000°N, 68.6700°W)
Time: 18:32:28
(UTC-04:00)

Daily predictions for brighter satellites

Satellite Brightness Start Highest point End
(mag) Time Altitude Azimuth Time Altitude Azimuth Time Altitude Azimuth
Cosmos 1680 Rocket 4.1 20:38:46 10° SSE 20:43:30 36° ESE 20:48:14 10° NE
SL-27 R/B 4.0 20:42:21 10° SE 20:45:00 19° E 20:47:38 10° NE
SPOT 5 3.9 20:44:20 10° ESE 20:47:53 25° ENE 20:51:27 10° N
H-2A R/B 4.5 20:50:34 10° ENE 20:51:21 10° ENE 20:52:06 10° NE
Cosmos 1743 2.7 20:48:45 10° N 20:52:39 74° E 20:56:32 10° SSE
Cosmos 1346 3.3 20:53:15 10° SSE 20:55:51 41° E 20:58:31 10° NNE
Envisat 3.6 20:52:05 10° S 20:57:05 58° W 21:02:07 10° NNW
Cosmos 405 4.0 20:54:47 10° N 20:58:02 31° ENE 21:00:54 12° SE
Terra 3.9 20:59:26 10° E 21:01:55 14° ENE 21:04:25 10° NNE
ASTEX 1 3.5 20:57:53 10° SSE 21:02:44 62° E 21:07:34 10° N
Aureole 3 Rocket 3.7 20:57:17 10° S 21:03:54 69° E 21:08:35 10° NNE
MetOp-B 4.4 20:58:50 10° SE 21:04:01 54° ENE 21:09:14 10° N
SPOT 1/Viking Rocket 4.5 21:03:38 11° SE 21:07:58 33° ENE 21:12:33 10° N
CRYOSAT 2 4.4 21:04:18 10° SSE 21:09:05 63° E 21:13:53 10° N
Cosmos 1437 Rocket 3.9 21:08:04 10° NNE 21:11:26 28° ENE 21:13:57 15° SE
Tiangong 2 2.5 21:09:40 10° SSW 21:12:04 20° SSE 21:13:18 16° ESE
Meteor 2-9 Rocket 4.2 21:07:04 10° N 21:12:31 67° ENE 21:17:53 11° SSE
Aureole 1 Rocket 2.6 21:10:12 10° S 21:13:26 43° ESE 21:16:19 10° NE
Okean 1-7 Rocket 3.9 21:09:20 10° SSE 21:13:34 46° E 21:17:53 10° NNE
NOSS 2-2 (E) 3.6 21:10:41 10° SW 21:14:44 83° NW 21:19:36 10° NE
Cosmos 1238 Rocket 4.2 21:09:15 10° S 21:15:52 63° E 21:22:21 10° NNE
DNEPR-1 R/B 3.5 21:12:20 10° NW 21:16:35 88° WSW 21:20:18 15° SSE
Okean 2 4.2 21:13:59 14° SSE 21:16:59 32° E 21:20:40 10° NNE
Meteor 2-4 Rocket 3.7 21:15:39 10° S 21:21:14 73° E 21:27:02 10° NNE
Cosmos 1666 2.8 21:19:32 10° NNW 21:23:17 71° W 21:26:55 10° S
Cosmos 1371 Rocket 4.3 21:18:28 10° NNW 21:23:44 56° ENE 21:27:44 17° SE
ISS -2.8 21:21:38 10° SSW 21:24:26 26° SE 21:27:15 10° E
Cosmos 2228 4.5 21:24:20 10° NNE 21:27:50 23° ENE 21:30:01 16° ESE
OAO 2 Rocket 4.4 21:24:40 10° SW 21:28:44 25° S 21:31:02 18° SE
Cosmos 923 Rocket 4.3 21:23:38 10° SSW 21:28:57 72° WNW 21:34:16 10° NNE
Cosmos 1833 Rocket 4.3 21:29:45 14° ESE 21:30:57 15° E 21:33:55 10° ENE
Cosmos 2184 Rocket 4.4 21:25:21 10° NNW 21:31:40 66° W 21:37:52 10° S
Cosmos 2074 Rocket 4.4 21:25:42 10° NNW 21:31:52 63° W 21:38:01 10° S
Cosmos 921 Rocket 4.1 21:29:23 10° N 21:33:29 32° ENE 21:36:04 18° ESE
CZ-3A R/B 2.7 21:31:54 10° SSW 21:33:08 14° S 21:33:08 14° S
Cosmos 1606 Rocket 3.7 21:34:47 10° N 21:39:03 56° E 21:41:41 22° SSE
Lacrosse 5 rocket 4.3 21:36:05 10° NW 21:39:18 18° N 21:42:33 10° NE
USA 245 2.1 21:38:45 29° SSE 21:39:57 78° ENE 21:42:23 10° N
Intercosmos 24 3.7 21:36:27 10° N 21:40:40 88° W 21:43:05 20° S
YAOGAN 11 4.1 21:40:59 17° S 21:44:16 76° WSW 21:48:37 10° NNW
USA 267 4.3 21:41:18 10° ENE 21:45:53 20° ESE 21:46:46 19° SE
SL-24 DEB 4.3 21:43:07 20° SSE 21:46:10 63° E 21:50:44 10° N
ERS-1 Rocket 3.8 21:41:47 10° S 21:46:35 46° W 21:51:26 10° NNW
Cosmos 1726 Rocket 3.6 21:45:44 10° N 21:50:03 62° E 21:52:22 26° SSE
Meteor 1-23 Rocket 4.2 21:44:52 10° S 21:50:26 84° W 21:56:05 10° N
OE (NEXTSAT) 4.3 21:47:05 10° WNW 21:50:40 89° SSW 21:52:37 25° ESE
MOS 1-B Rocket 4.2 21:46:02 13° S 21:51:09 67° WSW 21:57:30 10° NNW
Cosmos 1515 3.8 21:53:03 28° SSE 21:54:48 54° E 21:58:32 10° NNE
Meteor 1-4 Rocket 4.1 21:52:12 10° NNE 21:55:06 22° ENE 21:56:01 20° E
H-2A R/B 1.9 21:52:51 23° SSE 21:55:58 76° ENE 22:01:00 10° N
Cosmos 2058 Rocket 3.3 21:52:08 10° N 21:56:28 53° ENE 21:58:34 28° SE
Cosmos 1980 Rocket 4.0 21:52:20 10° N 21:56:37 21° NE 22:00:40 11° E
Meteor 1-15 Rocket 4.3 21:51:37 10° NNW 21:57:14 76° W 22:01:26 18° S
Cosmos 962 Rocket 4.5 21:54:42 10° N 22:01:01 86° E 22:05:22 21° S
CARTOSAT-1 4.1 21:59:31 27° SE 22:01:24 44° ENE 22:05:31 10° N
CENTAUR R/B 4.1 21:55:18 10° NW 22:02:32 39° WSW 22:09:18 13° S
Cosmos 1025 Rocket 3.5 21:58:40 10° SSW 22:02:52 58° W 22:07:06 10° N
DMSP B5D2-2 4.3 21:58:41 10° NNE 22:03:50 51° E 22:06:40 25° SSE
Cosmos 1624 Rocket 4.1 22:02:37 10° NNW 22:07:54 77° WSW 22:10:57 26° S
PSLV R/B 4.1 22:08:17 10° WSW 22:10:40 30° SSW 22:10:40 30° SSW
SL-08 RB Rocket 4.4 22:14:43 21° SSW 22:17:28 48° W 22:21:49 10° NNW
ARGOS 4.0 22:13:33 16° SSW 22:17:38 46° W 22:22:52 10° NNW
SL-8 Rocket 4.0 22:13:18 10° N 22:19:34 75° E 22:23:03 28° SSE
SL-27 R/B 4.4 22:16:44 10° SW 22:20:01 30° WNW 22:23:18 10° N
Cosmos 2366 rocket 4.1 22:17:28 10° N 22:23:35 59° ENE 22:26:33 30° SE
Landsat 7 3.8 22:21:41 31° S 22:23:59 77° WSW 22:28:46 10° NNW
SPOT 5 4.0 22:23:04 16° SSW 22:25:51 32° W 22:29:46 10° NNW
Cosmos 2278 3.7 22:20:17 10° NNW 22:26:03 88° WSW 22:28:45 33° SSE
H-2A R/B 2.1 22:24:49 38° SSE 22:26:33 79° ENE 22:31:06 10° NNW
Cosmos 2056 Rocket 3.9 22:21:32 10° NNW 22:26:37 56° WSW 22:29:09 28° S
CZ-4C R/B 4.3 22:26:09 26° E 22:26:37 27° ENE 22:29:39 10° N
Meteor 2-21 4.5 22:22:12 10° N 22:28:14 65° E 22:31:02 32° SSE
Cosmos 2082 Rocket 2.4 22:28:03 32° SSE 22:30:13 48° ESE 22:35:39 10° NE
CZ-4B R/B 3.8 22:32:53 10° NNE 22:37:47 48° E 22:39:09 38° SE
Cosmos 1626 Rocket 3.6 22:37:17 47° SE 22:38:08 56° E 22:42:22 10° NNE
Terra 1.8 22:37:11 38° S 22:39:02 78° WSW 22:43:49 10° NNW
Cosmos 839 Rocket 4.5 22:34:30 10° NW 22:40:57 65° WSW 22:44:54 30° S
CZ-2C R/B 4.4 22:40:30 10° NE 22:44:08 17° E 22:44:47 17° E
Timation 2 Rocket 4.5 22:42:49 34° SE 22:44:29 40° ESE 22:50:12 10° NE
Cosmos 2369 3.9 22:38:55 10° NNW 22:44:36 65° WSW 22:46:58 35° S
Cosmos 967 Rocket 4.5 22:40:12 10° SW 22:46:28 82° NW 22:52:48 10° NNE
Spot 4 3.9 22:45:18 43° SE 22:46:45 68° ENE 22:51:33 10° N
COSMOS 2487 2.5 22:47:21 56° SW 22:47:59 75° WNW 22:51:35 10° NNE
Cosmos 1420 Rocket 4.1 22:42:46 10° NNW 22:48:02 64° ENE 22:49:47 40° SE
Tiangong 2 3.8 22:45:21 10° WSW 22:45:36 12° WSW 22:45:36 12° WSW
SL-08 R/B 4.4 22:44:19 10° N 22:50:29 88° W 22:53:11 36° S
Cosmos 1842 4.1 22:53:44 36° E 22:53:44 36° E 22:57:10 10° NNE
Cosmos 1048 Rocket 4.5 22:53:19 38° ESE 22:53:51 39° ESE 22:58:38 10° NE
Cosmos 1697 Rocket 2.6 22:48:47 10° NNW 22:54:26 80° ENE 22:56:25 42° SE
SL-16 R/B 4.0 22:50:05 10° N 22:54:28 22° NE 22:58:08 13° E
Cosmos 1953 3.7 22:51:24 10° NNE 22:54:51 26° ENE 22:55:13 25° E
IGS 5A 4.0 22:56:43 39° SW 22:57:45 49° W 23:01:48 10° NNW
Cosmos 1452 Rocket 3.6 22:53:40 10° NNW 22:58:56 71° WSW 23:00:34 44° S
Cosmos 2218 Rocket 4.1 22:53:39 10° NNW 22:59:45 67° W 23:02:38 32° SSW
ISS -3.0 22:57:32 10° WSW 23:00:46 52° NNW 23:04:00 10° NE
DELTA 2 DEB (DPAF) 4.1 23:01:37 57° SSE 23:02:31 86° ENE 23:07:02 10° NNW
Iridium 2 3.6 23:01:29 10° N 23:05:18 68° E 23:05:19 68° E
Cosmos 2228 4.4 23:01:36 10° NNW 23:05:27 32° W 23:06:54 25° SW
Cosmos 1271 Rocket 2.8 23:01:40 10° N 23:05:30 60° ENE 23:05:37 60° E
deb Chang Zheng 4 4.1 23:05:38 10° N 23:09:50 53° WNW 23:11:26 33° SW
Cosmos 1602 Rocket 3.7 23:10:37 48° SW 23:11:38 66° W 23:15:58 10° N
Cosmos 1833 Rocket 2.6 23:11:23 32° SSW 23:14:04 84° WNW 23:19:45 10° NNE
Cosmos 1656 4.0 23:09:31 10° NW 23:14:47 51° WSW 23:16:17 40° SSW
ATLAS CENTAUR R/B 3.6 23:15:05 10° N 23:17:22 15° NE 23:19:12 12° ENE
Lacrosse 5 rocket 3.8 23:16:12 10° NW 23:19:57 23° NNE 23:23:42 10° ENE
Meteor 1-21 4.1 23:19:44 46° S 23:21:33 89° ESE 23:27:20 10° N
CZ-4 R/B 4.5 23:19:25 10° N 23:24:20 55° WNW 23:26:31 31° SW
Meteor 2-8 Rocket 4.5 23:22:56 45° SSE 23:24:43 65° E 23:30:49 10° NNE
Cosmos 1766 3.6 23:21:14 10° NNW 23:25:03 52° W 23:25:11 52° WSW
USA 267 3.1 23:23:03 10° NE 23:29:36 74° SE 23:34:02 22° SW
Meteor 1-4 Rocket 4.3 23:27:16 10° NW 23:30:11 23° W 23:30:20 23° W
Nadezhda 3 Rocket 4.0 23:29:12 44° S 23:31:24 84° E 23:37:48 10° N
Cosmos-2242 4.1 23:28:23 10° N 23:32:17 32° ENE 23:32:34 31° E
Cosmos 1758 3.3 23:29:58 10° N 23:33:51 78° NE 23:33:51 78° NE
H-2A R/B 4.3 23:33:40 10° WSW 23:36:01 13° W 23:38:24 10° WNW
Cosmos 2360 Rocket 4.2 23:35:17 10° N 23:39:31 21° NE 23:43:43 10° E
Cosmos 1980 Rocket 2.1 23:35:35 10° NNW 23:41:15 75° WSW 23:42:26 56° S
Cosmos 2239 Rocket 4.4 23:35:31 10° N 23:41:42 79° E 23:43:27 50° SSE
Cosmos 1470 3.4 23:38:46 10° N 23:42:26 46° ENE 23:42:26 46° ENE
SeaSat 1 2.3 23:46:39 64° SSE 23:47:27 88° ENE 23:52:26 10° NNW
SME Rocket 3.5 23:46:35 55° S 23:47:40 74° WSW 23:52:02 10° NNW
Cosmos 1821 Rocket 3.9 23:42:12 10° N 23:48:29 86° E 23:50:18 50° SSE
Cosmos 2322 Rocket 2.8 23:44:11 10° NNW 23:49:45 51° ENE 23:51:42 36° ESE
